User: anonymous   Login
Location: Trois-Rivi�res
(46.3500°N, 72.5500°W)
Time: 02:51:30
(UTC-05:00)
Language:

SJ-11-01 - Orbit

View from above orbital plane
View from above orbital plane
View from above satellite
View from above satellite

Ground track
Ground track

The orbit data is extracted from the following two-line orbital elements,

1 36088U 09061A   16342.76308379  .00000108  00000-0  32309-4 0  9990
2 36088  98.1655  27.8106 0011991 138.4792 221.7314 14.59898879376712
Epoch (UTC): 07 December 2016 18:18:50
Eccentricity: 0.0011991
inclination: 98.1655°
perigee height: 685 km
apogee height: 702 km
right ascension of ascending node: 27.8106°
argument of perigee: 138.4792°
revolutions per day: 14.59898879
mean anomaly at epoch: 221.7314°
orbit number at epoch: 37671

The dashed part of the orbit path shows where the satellite is in the earth's shadow,  

DLR